TimeCST,TemperatureF,Dew PointF,Humidity,Sea Level PressureIn,VisibilityMPH,Wind Direction,Wind SpeedMPH,Gust SpeedMPH,PrecipitationIn,Events,Conditions,WindDirDegrees,DateUTC
12:34 AM,46.4,41.0,81,29.95,10.0,WNW,12.7,21.9,N/A,,Overcast,290,2013-02-19 06:34:00
12:53 AM,46.0,39.0,76,29.96,10.0,NW,16.1,23.0,N/A,,Overcast,310,2013-02-19 06:53:00
1:26 AM,46.4,39.2,76,29.98,10.0,NW,12.7,19.6,N/A,,Overcast,310,2013-02-19 07:26:00
1:53 AM,45.0,39.0,80,29.99,10.0,NW,6.9,-,N/A,,Overcast,310,2013-02-19 07:53:00
2:53 AM,44.1,36.0,73,30.00,10.0,NW,9.2,21.9,N/A,,Overcast,310,2013-02-19 08:53:00
3:09 AM,42.8,33.8,70,30.01,10.0,WNW,16.1,21.9,N/A,,Overcast,300,2013-02-19 09:09:00
3:53 AM,42.1,34.0,73,30.03,10.0,NW,19.6,25.3,N/A,,Overcast,310,2013-02-19 09:53:00
4:53 AM,37.9,30.0,73,30.07,10.0,WNW,10.4,-,N/A,,Clear,300,2013-02-19 10:53:00
5:53 AM,36.0,28.9,76,30.11,10.0,WNW,9.2,-,N/A,,Clear,300,2013-02-19 11:53:00
6:53 AM,35.1,27.0,72,30.14,10.0,WNW,8.1,-,N/A,,Clear,300,2013-02-19 12:53:00
7:53 AM,36.0,26.1,67,30.17,10.0,WNW,12.7,18.4,N/A,,Clear,290,2013-02-19 13:53:00
8:53 AM,37.9,23.0,55,30.19,10.0,NW,15.0,-,N/A,,Clear,310,2013-02-19 14:53:00
9:53 AM,39.9,23.0,51,30.20,10.0,WNW,12.7,-,N/A,,Clear,300,2013-02-19 15:53:00
12:53 PM,46.0,23.0,40,30.20,10.0,WNW,17.3,27.6,N/A,,Clear,300,2013-02-19 18:53:00
1:53 PM,46.9,25.0,42,30.20,10.0,WNW,13.8,21.9,N/A,,Clear,290,2013-02-19 19:53:00
2:53 PM,46.9,24.1,41,30.21,10.0,NW,15.0,23.0,N/A,,Clear,310,2013-02-19 20:53:00
3:53 PM,46.0,23.0,40,30.22,10.0,West,12.7,-,N/A,,Clear,270,2013-02-19 21:53:00
4:53 PM,45.0,23.0,42,30.23,10.0,West,11.5,-,N/A,,Clear,270,2013-02-19 22:53:00
6:53 PM,37.9,23.0,55,30.23,10.0,WSW,4.6,-,N/A,,Clear,250,2013-02-20 00:53:00
7:53 PM,35.1,21.9,59,30.24,10.0,SW,4.6,-,N/A,,Clear,230,2013-02-20 01:53:00
8:53 PM,32.0,23.0,69,30.26,10.0,WSW,4.6,-,N/A,,Clear,240,2013-02-20 02:53:00
9:53 PM,33.1,21.9,64,30.26,10.0,West,6.9,-,N/A,,Clear,270,2013-02-20 03:53:00
10:53 PM,35.1,19.9,54,30.27,10.0,WNW,5.8,-,N/A,,Clear,290,2013-02-20 04:53:00
11:53 PM,30.0,19.9,66,30.28,10.0,NNW,3.5,-,N/A,,Clear,340,2013-02-20 05:53:00